Terminal Aerodrome Forecast
Issued by NWS Amarillo, TX

Home | Current Version | Previous Version | Text Only | Print | Product List | Glossary On
Versions: 1 2 3 4 5 6 7 8 9 10 11 12
000
FTUS44 KAMA 312300
TAFGUY
TAF
KGUY 312334Z 0100/0124 15011KT P6SM SCT300
     FM011500 20025G34KT P6SM BKN300=

USA.gov is the U.S. government's official web portal to all federal, state and local government web resources and services.